User: anonymous   Login
Location: Unspecified
(0.0000°N, 0.0000°E)
Time: 18:45:33
(UTC+00:00)
Language:

Hubble Space Telescope - Orbit

View from above orbital plane
View from above orbital plane
View from above satellite
View from above satellite

Ground track
Ground track

The orbit data is extracted from the following two-line orbital elements,

1 20580U 90037B   17234.22513267 +.00000598 +00000-0 +25905-4 0  9996
2 20580 028.4696 291.1414 0002776 158.4551 261.0031 15.08820181300184
Epoch (UTC): 22 August 2017 05:24:11
Eccentricity: 0.0002776
inclination: 28.4696°
perigee height: 538 km
apogee height: 542 km
right ascension of ascending node: 291.1414°
argument of perigee: 158.4551°
revolutions per day: 15.08820181
mean anomaly at epoch: 261.0031°
orbit number at epoch: 30018

The dashed part of the orbit path shows where the satellite is in the earth's shadow,  

DLR